Time,TemperatureC,DewpointC,PressurehPa,WindDirection,WindDirectionDegrees,WindSpeedKMH,WindSpeedGustKMH,Humidity,HourlyPrecipMM,Conditions,Clouds,dailyrainMM,SolarRadiationWatts/m^2,UVIndex,SoftwareType,DateUTC
2024-02-22 00:00:05,10.2,5.8,1021.3,ESE,107,0,0,74,0.0,,,0.0,0,0,n/a,2024-02-21T23:00:05Z
2024-02-22 00:05:05,10.2,5.8,1021.3,ESE,107,0,0,74,0.0,,,0.0,0,0,n/a,2024-02-21T23:05:05Z
2024-02-22 00:10:05,10.2,5.9,1021.3,ESE,107,0,0,75,0.0,,,0.0,0,0,n/a,2024-02-21T23:10:05Z
2024-02-22 00:15:05,10.2,5.8,1021.3,ESE,107,0,1.6,74,0.0,,,0.0,0,0,n/a,2024-02-21T23:15:05Z
2024-02-22 00:20:05,10.2,5.9,1021.0,ESE,107,0,0,75,0.0,,,0.0,0,0,n/a,2024-02-21T23:20:05Z
2024-02-22 00:25:05,10.2,5.7,1021.0,ESE,107,0,0,74,0.0,,,0.0,0,0,n/a,2024-02-21T23:25:05Z
2024-02-22 00:30:05,10.2,5.5,1021.0,ESE,107,0,1.6,73,0.0,,,0.0,0,0,n/a,2024-02-21T23:30:05Z
2024-02-22 00:35:05,10.1,5.6,1021.0,ESE,107,0,0,74,0.0,,,0.0,0,0,n/a,2024-02-21T23:35:05Z
2024-02-22 00:40:05,10.1,5.6,1021.0,ESE,107,0,0,74,0.0,,,0.0,0,0,n/a,2024-02-21T23:40:05Z
2024-02-22 00:45:05,10.1,5.6,1021.0,ESE,107,0,3.2,74,0.0,,,0.0,0,0,n/a,2024-02-21T23:45:05Z
2024-02-22 00:50:05,10.1,5.6,1021.0,ESE,107,0,3.2,74,0.0,,,0.0,0,0,n/a,2024-02-21T23:50:05Z
2024-02-22 00:55:05,10.1,5.8,1021.0,ESE,107,0,0,75,0.0,,,0.0,0,0,n/a,2024-02-21T23:55:05Z
2024-02-22 01:00:05,10.1,5.8,1021.0,ESE,107,0,0,75,0.0,,,0.0,0,0,n/a,2024-02-22T00:00:05Z
2024-02-22 01:05:05,10,5.9,1020.7,ESE,107,0,1.6,76,0.0,,,0.0,0,0,n/a,2024-02-22T00:05:05Z
2024-02-22 01:10:05,10,5.9,1020.7,ESE,107,0,1.6,76,0.0,,,0.0,0,0,n/a,2024-02-22T00:10:05Z
2024-02-22 01:15:05,10,5.9,1020.7,ESE,107,0,0,76,0.0,,,0.0,0,0,n/a,2024-02-22T00:15:05Z
2024-02-22 01:20:05,9.9,6.1,1020.7,ESE,107,0,0,77,0.0,,,0.0,0,0,n/a,2024-02-22T00:20:05Z
2024-02-22 01:25:05,10,6.1,1020.7,ESE,107,0,1.6,77,0.0,,,0.0,0,0,n/a,2024-02-22T00:25:05Z
2024-02-22 01:30:05,10.1,6,1020.7,ESE,107,0,0,76,0.0,,,0.0,0,0,n/a,2024-02-22T00:30:05Z
2024-02-22 01:35:05,10,5.9,1020.7,ESE,107,0,0,76,0.0,,,0.0,0,0,n/a,2024-02-22T00:35:05Z
2024-02-22 01:40:05,9.9,6.1,1020.7,ESE,107,0,0,77,0.0,,,0.0,0,0,n/a,2024-02-22T00:40:05Z
2024-02-22 01:45:05,9.9,6.1,1020.7,ESE,107,0,1.6,77,0.0,,,0.0,0,0,n/a,2024-02-22T00:45:05Z
2024-02-22 01:50:05,9.9,6,1020.7,ESE,107,0,0,77,0.0,,,0.0,0,0,n/a,2024-02-22T00:50:05Z
2024-02-22 01:55:05,9.8,5.9,1020.7,ESE,107,0,0,77,0.0,,,0.0,0,0,n/a,2024-02-22T00:55:05Z
2024-02-22 02:00:05,9.8,5.9,1020.7,ESE,107,0,1.6,77,0.0,,,0.0,0,0,n/a,2024-02-22T01:00:05Z
2024-02-22 02:05:05,9.7,5.8,1020.3,ESE,107,0,1.6,77,0.0,,,0.0,0,0,n/a,2024-02-22T01:05:05Z
2024-02-22 02:10:05,9.6,5.9,1020.7,ESE,107,0,3.2,78,0.0,,,0.0,0,0,n/a,2024-02-22T01:10:05Z
2024-02-22 02:15:05,9.6,5.9,1020.3,ESE,107,0,1.6,78,0.0,,,0.0,0,0,n/a,2024-02-22T01:15:05Z
2024-02-22 02:20:05,9.5,5.8,1020.3,ESE,107,0,3.2,78,0.0,,,0.0,0,0,n/a,2024-02-22T01:20:05Z
2024-02-22 02:25:04,9.4,5.8,1020.3,ESE,107,0,1.6,78,0.0,,,0.0,0,0,n/a,2024-02-22T01:25:04Z
2024-02-22 02:30:04,9.4,5.9,1020.3,ESE,107,0,3.2,79,0.0,,,0.0,0,0,n/a,2024-02-22T01:30:04Z
2024-02-22 02:35:04,9.4,5.9,1020.3,ESE,107,1.6,3.2,79,0.0,,,0.0,0,0,n/a,2024-02-22T01:35:04Z
2024-02-22 02:40:04,9.4,5.9,1020.3,ESE,107,1.6,3.2,79,0.0,,,0.0,0,0,n/a,2024-02-22T01:40:04Z
2024-02-22 02:45:04,9.4,5.9,1020.0,ESE,107,3.2,4.8,79,0.0,,,0.0,0,0,n/a,2024-02-22T01:45:04Z
2024-02-22 02:50:04,9.5,6,1020.0,ESE,107,1.6,4.8,79,0.0,,,0.0,0,0,n/a,2024-02-22T01:50:04Z
2024-02-22 02:55:04,9.6,6.1,1020.0,ESE,105,6.4,9.7,79,0.0,,,0.0,0,0,n/a,2024-02-22T01:55:04Z
2024-02-22 03:00:04,9.4,5.9,1020.0,ESE,105,3.2,6.4,79,0.0,,,0.0,0,0,n/a,2024-02-22T02:00:04Z
2024-02-22 03:05:04,9.4,5.9,1020.0,ESE,104,6.4,6.4,79,0.0,,,0.0,0,0,n/a,2024-02-22T02:05:04Z
2024-02-22 03:10:04,9.4,5.9,1019.6,East,101,3.2,6.4,79,0.0,,,0.0,0,0,n/a,2024-02-22T02:10:04Z
2024-02-22 03:15:04,9.4,5.9,1019.6,East,101,0,4.8,79,0.0,,,0.0,0,0,n/a,2024-02-22T02:15:04Z
2024-02-22 03:20:04,9.4,5.9,1019.6,East,101,0,3.2,79,0.0,,,0.0,0,0,n/a,2024-02-22T02:20:04Z
2024-02-22 03:25:04,9.3,5.8,1019.6,East,101,0,0,79,0.0,,,0.0,0,0,n/a,2024-02-22T02:25:04Z
2024-02-22 03:30:04,9.3,5.8,1019.6,East,101,0,0,79,0.0,,,0.0,0,0,n/a,2024-02-22T02:30:04Z
2024-02-22 03:35:04,9.4,6.1,1019.6,East,101,0,1.6,80,0.0,,,0.0,0,0,n/a,2024-02-22T02:35:04Z
2024-02-22 03:40:04,9.6,6.1,1019.6,East,101,0,0,79,0.0,,,0.0,0,0,n/a,2024-02-22T02:40:04Z
2024-02-22 03:45:04,9.7,6.3,1019.6,East,101,0,0,80,0.0,,,0.0,0,0,n/a,2024-02-22T02:45:04Z
2024-02-22 03:50:04,9.7,6.3,1019.6,East,101,0,0,80,0.0,,,0.0,0,0,n/a,2024-02-22T02:50:04Z
2024-02-22 03:55:04,9.8,6.7,1019.6,East,101,0,0,81,0.0,,,0.0,0,0,n/a,2024-02-22T02:55:04Z
2024-02-22 04:00:04,9.8,6.4,1019.6,East,101,0,0,80,0.0,,,0.0,0,0,n/a,2024-02-22T03:00:04Z
2024-02-22 04:05:04,9.8,6.7,1019.3,East,101,0,0,81,0.0,,,0.0,0,0,n/a,2024-02-22T03:05:04Z
2024-02-22 04:10:04,9.7,6.4,1019.3,East,101,0,0,80,0.0,,,0.0,0,0,n/a,2024-02-22T03:10:04Z
2024-02-22 04:15:04,9.7,6.6,1019.3,East,101,0,0,81,0.0,,,0.0,0,0,n/a,2024-02-22T03:15:04Z
2024-02-22 04:20:04,9.6,6.5,1019.3,East,101,0,0,81,0.0,,,0.0,0,0,n/a,2024-02-22T03:20:04Z
2024-02-22 04:25:04,9.5,6.6,1019.3,East,101,0,0,82,0.0,,,0.0,0,0,n/a,2024-02-22T03:25:04Z
2024-02-22 04:30:04,9.4,6.5,1019.3,East,101,0,0,82,0.0,,,0.0,0,0,n/a,2024-02-22T03:30:04Z
2024-02-22 04:35:05,9.4,6.4,1019.3,East,101,0,0,82,0.0,,,0.0,0,0,n/a,2024-02-22T03:35:05Z
2024-02-22 04:40:04,9.3,6.5,1019.3,East,101,0,0,83,0.0,,,0.0,0,0,n/a,2024-02-22T03:40:04Z
2024-02-22 04:45:04,9.2,6.4,1019.3,East,101,0,0,83,0.0,,,0.0,0,0,n/a,2024-02-22T03:45:04Z
2024-02-22 04:50:04,9.2,6.6,1019.3,East,101,0,1.6,84,0.0,,,0.0,0,0,n/a,2024-02-22T03:50:04Z
2024-02-22 04:55:04,9.2,6.6,1019.3,East,101,0,0,84,0.0,,,0.0,0,0,n/a,2024-02-22T03:55:04Z
2024-02-22 05:00:04,9.1,6.5,1019.3,East,101,0,1.6,84,0.0,,,0.0,0,0,n/a,2024-02-22T04:00:04Z
2024-02-22 05:05:05,9.1,6.3,1019.0,East,101,0,1.6,83,0.0,,,0.0,0,0,n/a,2024-02-22T04:05:05Z
2024-02-22 05:10:05,8.9,6.2,1019.0,East,101,0,3.2,83,0.0,,,0.0,0,0,n/a,2024-02-22T04:10:05Z
2024-02-22 05:15:05,8.8,6,1019.0,East,101,1.6,1.6,83,0.0,,,0.0,0,0,n/a,2024-02-22T04:15:05Z
2024-02-22 05:20:05,8.7,6.2,1019.0,East,101,0,1.6,84,0.0,,,0.0,0,0,n/a,2024-02-22T04:20:05Z
2024-02-22 05:25:05,8.7,6.2,1019.0,East,101,0,0,84,0.0,,,0.0,0,0,n/a,2024-02-22T04:25:05Z
2024-02-22 05:30:05,8.7,6.1,1019.0,East,101,0,0,84,0.0,,,0.0,0,0,n/a,2024-02-22T04:30:05Z
2024-02-22 05:35:05,8.7,6.1,1019.0,East,101,0,0,84,0.0,,,0.0,0,0,n/a,2024-02-22T04:35:05Z
2024-02-22 05:40:05,8.7,6.1,1019.0,East,101,0,1.6,84,0.0,,,0.0,0,0,n/a,2024-02-22T04:40:05Z
2024-02-22 05:45:05,8.7,6.1,1019.0,East,101,0,3.2,84,0.0,,,0.0,0,0,n/a,2024-02-22T04:45:05Z
2024-02-22 05:50:05,8.7,6.1,1019.0,East,101,1.6,1.6,84,0.0,,,0.0,0,0,n/a,2024-02-22T04:50:05Z
2024-02-22 05:55:05,8.6,5.8,1019.0,East,101,1.6,3.2,83,0.0,,,0.0,0,0,n/a,2024-02-22T04:55:05Z
2024-02-22 06:00:05,8.5,5.8,1019.0,East,101,0,0,83,0.0,,,0.0,0,0,n/a,2024-02-22T05:00:05Z
2024-02-22 06:05:05,8.4,5.7,1019.0,East,101,0,1.6,83,0.0,,,0.0,0,0,n/a,2024-02-22T05:05:05Z
2024-02-22 06:10:05,8.4,5.7,1019.0,East,101,0,1.6,83,0.0,,,0.0,0,0,n/a,2024-02-22T05:10:05Z
2024-02-22 06:15:05,8.4,5.8,1019.0,East,101,0,1.6,84,0.0,,,0.0,0,0,n/a,2024-02-22T05:15:05Z
2024-02-22 06:20:05,8.3,5.8,1019.0,East,101,0,3.2,84,0.0,,,0.0,0,0,n/a,2024-02-22T05:20:05Z
2024-02-22 06:25:05,8.3,5.8,1019.0,East,101,1.6,3.2,84,0.0,,,0.0,0,0,n/a,2024-02-22T05:25:05Z
2024-02-22 06:30:05,8.4,5.8,1019.0,ESE,105,1.6,4.8,84,0.0,,,0.0,0,0,n/a,2024-02-22T05:30:05Z
2024-02-22 06:35:05,8.4,5.7,1019.0,ESE,105,0,3.2,83,0.0,,,0.0,0,0,n/a,2024-02-22T05:35:05Z
2024-02-22 06:40:05,8.3,5.4,1019.0,ESE,105,1.6,3.2,82,0.0,,,0.0,0,0,n/a,2024-02-22T05:40:05Z
2024-02-22 06:45:05,8.3,5.4,1019.0,ESE,105,0,3.2,82,0.0,,,0.0,0,0,n/a,2024-02-22T05:45:05Z
2024-02-22 06:50:05,8.3,5.3,1019.0,ESE,105,0,4.8,82,0.0,,,0.0,0,0,n/a,2024-02-22T05:50:05Z
2024-02-22 06:55:05,8.3,5.2,1019.0,ESE,105,3.2,3.2,81,0.0,,,0.0,5,0,n/a,2024-02-22T05:55:05Z
2024-02-22 07:00:05,8.2,5.1,1019.0,ESE,105,0,3.2,81,0.0,,,0.0,7,0,n/a,2024-02-22T06:00:05Z
2024-02-22 07:05:05,8.2,5.1,1019.0,ESE,105,0,0,81,0.0,,,0.0,11,0,n/a,2024-02-22T06:05:05Z
2024-02-22 07:10:05,8.3,5.2,1019.0,ESE,105,0,1.6,81,0.0,,,0.0,21,0,n/a,2024-02-22T06:10:05Z
2024-02-22 07:15:05,8.4,5.3,1019.0,ESE,105,0,1.6,81,0.0,,,0.0,19,0,n/a,2024-02-22T06:15:05Z
2024-02-22 07:20:05,8.4,5.2,1019.0,ESE,105,1.6,1.6,80,0.0,,,0.0,28,0,n/a,2024-02-22T06:20:05Z
2024-02-22 07:25:05,8.6,5.3,1019.0,ESE,105,1.6,3.2,80,0.0,,,0.0,54,0,n/a,2024-02-22T06:25:05Z
2024-02-22 07:30:05,8.8,5.3,1019.0,ESE,105,4.8,4.8,79,0.0,,,0.0,54,0,n/a,2024-02-22T06:30:05Z
2024-02-22 07:35:05,8.8,5.3,1019.0,ESE,111,1.6,6.4,79,0.0,,,0.0,63,0,n/a,2024-02-22T06:35:05Z
2024-02-22 07:40:05,8.8,5.3,1019.0,SE,133,4.8,6.4,79,0.0,,,0.0,72,0,n/a,2024-02-22T06:40:05Z
2024-02-22 07:45:05,8.7,5.3,1019.0,ESE,122,4.8,8,79,0.0,,,0.0,69,0,n/a,2024-02-22T06:45:05Z
2024-02-22 07:50:05,8.7,5.1,1019.0,ESE,123,4.8,6.4,78,0.0,,,0.0,77,0,n/a,2024-02-22T06:50:05Z
2024-02-22 07:55:05,8.7,5.1,1019.0,SE,131,3.2,9.7,78,0.0,,,0.0,104,0,n/a,2024-02-22T06:55:05Z
2024-02-22 08:00:05,8.7,5.1,1019.0,ESE,123,4.8,11.3,78,0.0,,,0.0,97,0,n/a,2024-02-22T07:00:05Z
2024-02-22 08:05:05,8.8,4.9,1019.3,SE,130,4.8,9.7,77,0.0,,,0.0,151,0,n/a,2024-02-22T07:05:05Z
2024-02-22 08:10:05,8.9,5.1,1019.0,SE,140,3.2,8,77,0.0,,,0.0,144,0,n/a,2024-02-22T07:10:05Z
2024-02-22 08:15:05,9.1,5.2,1019.0,ESE,119,6.4,11.3,77,0.0,,,0.0,172,0,n/a,2024-02-22T07:15:05Z
2024-02-22 08:20:05,9.2,5.2,1019.3,SSE,157,4.8,12.9,76,0.0,,,0.0,197,0,n/a,2024-02-22T07:20:05Z
2024-02-22 08:25:05,9.3,5.3,1019.0,SE,132,8,14.5,76,0.0,,,0.0,207,0,n/a,2024-02-22T07:25:05Z
2024-02-22 08:30:04,9.6,5.5,1019.0,SE,137,6.4,14.5,76,0.0,,,0.0,218,0,n/a,2024-02-22T07:30:04Z
2024-02-22 08:35:04,9.8,5.7,1019.0,ESE,106,9.7,12.9,76,0.0,,,0.0,225,0,n/a,2024-02-22T07:35:04Z
2024-02-22 08:40:04,9.9,5.9,1019.0,SE,134,4.8,11.3,76,0.0,,,0.0,230,0,n/a,2024-02-22T07:40:04Z